Find Starlink 31585

NORAD ID: 59608 Int'l Des: 2024-080 Owner: SPXS Country: US Constellation: starlink operational
LEOCIRCULAR

現在のビュー

3D地球を読み込み中...

About Starlink 31585

Starlink 31585 (NORAD 59608) is a starlink constellation satellite (v2 mini) launched Apr 28, 2024 by SPXS of US. It operates in LEO, CIRCULAR orbit with a mass of 730.00 kg.

Starlink 31585について

説明を読み込み中...

次回通過

Passes for default location (London). Set your location on the main map for personalized predictions.

高度履歴

Loading altitude history...

軌道要素

1 59608U 24080H 26171.05425388 .00000282 00000-0 19763-4 0 9996
2 59608 43.0013 175.8582 0001183 271.4320 88.6396 15.27576518120245
Epoch: Jun 20, 2026 • Age: 43 hours

現在のステータス

高度 485.2 km
速度 7.63 km/s
衛星直下点 35.64°N, 6.76°E
打ち上げ日 Apr 28, 2024
運用期間 2.1 years
タイプ internet

技術仕様

分類 Payload
質量 730.00 kg
乾燥質量 700.00 kg
総質量 730.00 kg
長さ 0.30 m
直径 4.10 m
スパン 29.00 m
形状 Box + pan
製造者 SPXS
バスタイプ Starlink V2M
フェーズステータス In Orbit
所有者/国 SPXS/US

Most Searched